星链-34939 (STARLINK-34939)

导读 | 豆包AI

STARLINK-34939是美国太空探索技术公司星链星座的组网卫星,于2025年8月14日发射升空。作为星链低轨互联网星座的组成部分,它承担着为全球提供高速卫星互联网接入服务的任务,进一步扩充了星链星座的在轨规模,助力美国完成近地轨道大规模卫星星座的部署推进。

Basic Information
目录编号:
65183
目录名称:
STARLINK-34939
国际标识:
2025-175K
轨道中心:
EARTH
卫星名称:
星链-34939
卫星全名:
星链-34939 (STARLINK-34939)
卫星状态:
在轨 (已飞行258 天)
发射日期:
2025-08-14 UTC
国别 :
美国 (US)
星等 :
--
Orbit Information
数据来源 国际轨道数据 AOE轨道数据
星历时间 2026-04-29T11:51:15+0800
7小时前
查看轨道信息
2026-04-23T00:00:00+0800
6天前
查看轨道信息
半长轴 6927.666km 6927.674km
偏心率 0.0002621 0.0002582
轨道倾角 97.560° 97.589°
近地点辐角 98.662° 92.616°
升交点赤经 352.351° 345.976°
平近点角 261.490° 10.353°
近地点 547.713km 547.748km
远地点 551.345km 551.326km
周期 95.640分钟 95.640分钟
每日圈数 15.056445 15.056417
Detailed Information
固有亮度:
5
最大亮度:
2.5
卫星平台:
Starlink V1.0
覆盖范围:
全球
运营商:
太空探索技术公司
运营商所在国:
美国
制造商(研发单位):
太空探索技术公司
制造商所在国:
美国
使用方式:
暂无
Satellite Introduction
Starlink 计划是 SpaceX 推出的全球卫星互联网项目,通过发射低轨道卫星,为全球尤其是偏远地区提供高速、低延迟的互联网服务。自 2019 年起,Starlink 已部署数千颗卫星,旨在缩小全球数字鸿沟,推动互联网普及。该项目还为军事、航空等行业提供通信支持,带来广泛经济效益。
2D Orbit Map
3D Orbit Map
Orbit Altitude Analysis Chart
Orbit Inclination Analysis Chart
Orbit Comprehensive Analysis Chart
View Comprehensive Chart